METAR Formatted Surface Weather Observation
Issued by NWS

Home | Current Version | Previous Version | Text Only | Print | Product List | Glossary On
Versions: 1 2 3 4 5 6 7 8 9 10 11 12 13 14 15 16 17 18 19 20 21 22 23 24 25 26 27 28 29 30 31 32 33 34 35 36 37 38 39 40 41 42 43 44 45 46 47 48 49 50
230
SAUS46 KLOX 222112 COR
MTRNKX
METAR KNKX 222055Z 16015G25KT 10SM BKN030 OVC040 16/10 A3004 RMK AO2
RAB11E33 PRESFR SLP168 P0000 60000 T01610100 58040 $



USA.gov is the U.S. government's official web portal to all federal, state and local government web resources and services.